INTELSAT 20 (IS-20)

Last updated on Wed Sep 09 2026 00:02:59 GMT+0000 (Coordinated Universal Time)

1 38740U 12043A 26251.10212653 -.00000045 00000+0 00000+0 0 9996 2 38740 0.0170 142.2930 0001601 25.5822 284.5644 1.00271501 51573
UTC large
Height (km)
Speed (km/s)
/
Latitude / Longitude
Inclination (degrees)
Orbital Period (minutes)
Azimuth
Elevation
Range (km)
Doppler Factor

Next 0 passes for location: London (51.5072 / 0.1276)

No passes found over London.
INTELSAT 20 (IS-20)